Overview Statistics Trail Chart Weather Telemetry Raw packets
 

This is the latest recevied weather packets stored in our database for station/object NR6G-5. If no packets are shown the sender has not sent any weather packets the latest 10 day(s).

<< 17 18 19 20 21 22 23 >>
Time Temp. Humidity Pressure Rain* Wind** Luminosity Snow
1777670314 30° C 31% 1010.2 hPa 0 mm - - -
1777670013 30.56° C 32% 1010.2 hPa 0 mm - - -
1777669713 30° C 33% 1010.2 hPa 0 mm - - -
1777669415 30° C 33% 1010.3 hPa 0 mm - - -
1777669115 30° C 32% 1010.4 hPa 0 mm - - -
1777668814 30° C 33% 1010.4 hPa 0 mm - - -
1777668515 29.44° C 33% 1010.5 hPa 0 mm - - -
1777668214 29.44° C 34% 1010.5 hPa 0 mm - - -
1777667924 28.89° C 35% 1010.6 hPa 0 mm - - -
1777667614 28.89° C 35% 1010.6 hPa 0 mm - - -
1777666716 28.89° C 36% 1010.9 hPa 0 mm - - -
1777666414 28.89° C 36% 1010.9 hPa 0 mm - - -
1777666114 28.33° C 38% 1011 hPa 0 mm - - -
1777665813 28.33° C 37% 1011.1 hPa 0 mm - - -
1777665513 28.33° C 37% 1011.1 hPa 0 mm - - -
1777665213 28.33° C 38% 1011.3 hPa 0 mm - - -
1777664913 28.33° C 38% 1011.3 hPa 0 mm - - -
1777664586 27.78° C 39% 1011.3 hPa 0 mm - - -
1777664285 27.78° C 39% 1011.5 hPa 0 mm - - -
1777663686 27.78° C 39% 1011.7 hPa 0 mm - - -
1777663386 27.22° C 42% 1011.8 hPa 0 mm - - -
1777662786 27.22° C 43% 1011.9 hPa 0 mm - - -
1777662487 27.22° C 41% 1012 hPa 0 mm - - -
1777661887 27.22° C 42% 1012.2 hPa 0 mm - - -
1777661586 26.67° C 45% 1012.4 hPa 0 mm - - -

* Rain latest hour (hover to see other rain measurements)
** Current wind speed in m/s (hover to see current wind gust speed)